SL-12 R/B(2), 38104

Orbit data source: Space-Track

SL-12 R/B(2), 38104 is space debris in GEO originally from a launch on Fri, 30 Mar 2012 UTC launched from the Tyuratam Missile And Space Complex (TTMTR). Debris objects in space refer to the collection of defunct objects orbiting the Earth. Examples of debris include non-operational satellites, rocket bodies, and fragments generated from explosions, collisions, or faulty payload assembly.

Not visible in the next 10 days
Identifier
38104, 2012-012D
Orbit
GEO
Country
Flag of CISCIS
Related business
Manufacturer
RKKE
Mission
Spacecraft
Bus & Motor
BLOK DM2, Unknown motor
Mass
2,440 kg wet, 2,440 kg dry
Launch date (UTC)
2012-03-30 (14 years ago)
Launch vehicle
Unknown
Launch site
Tyuratam Missile And Space Complex (TTMTR)
Object type
Payload
Rocket body
Debris
Shape & HBR
Cyl, 3.5 m
Radar Cross Section
26.008 m², Large (>1 m²)

Expand to show TLE details & history
Last TLE update: 1 day ago

TLE from 1 day ago
0 SL-12 R/B(2)
1 38104U 12012D   25306.07432451  .00000065  00000-0  00000-0 0  9995
2 38104   8.3120  58.7808 0010699 288.0525 261.9700  1.00281268 49784
Epoch: 2025-11-02T01:47Z
TLE epoch observation values (Epoch: 2025-11-02T01:47:01.637Z)
Latitude
-1.42783°
Longitude
-179.80263°
Altitude
35,790.258 km
Speed
3.074 km/s
True Right ascension
16h 34m 11s
True Declination
-1° 25' 35"
Sunlit
Object was in daylight at epoch
Visualization orbit readout
Latitude
Unknown
Longitude
Unknown
Altitude
Unknown
Speed
Unknown
Apparent Right ascension
Unknown
Apparent Declination
Unknown
Sunlit
N/A
Visualization observer readout
Local Sidereal Time
04:56:52
Azimuth
Unknown
Elevation
Unknown
Doppler factor
Unknown
Orbital elements
Apogee altitude
35,830.085 km
Perigee altitude
35,739.864 km
Semi-major axis
42,163.111 km
Eccentricity
0.00107
Inclination
8.312°
RAAN
58.7808°
Arg. of periapsis
288.0525°
True anomaly
261.84862°
Mean anomaly
261.97°
Eccentric anomaly
261.90931°
Mean motion
0.25069 °/min
Orbital period
1,436.01 mins
BSTAR
0
Loading maneuver chart data...
Computing Atmospheric mass density...
Loading historical data...
Loading historical data...
Loading historical data...
Loading historical data...
Loading historical data...
Loading historical data...
Loading historical data...

Documentation

Showing up to 5 results
|